timestamp,wind_dir_avg,wind_spd_max_dir,wind_spd_avg,wind_spd_gust,battery_voltage,lat,long
2018-03-22 00:00:00+00:00,87.0,87.0,3.34,3.92,,47.59359,-54.27349
2018-03-22 00:10:00+00:00,82.0,75.0,3.4,3.69,,47.59359,-54.27349
2018-03-22 00:20:00+00:00,76.0,76.0,3.77,4.23,,47.59359,-54.27349
2018-03-22 00:30:00+00:00,76.0,78.0,3.58,4.2,,47.59359,-54.27349
2018-03-22 00:40:00+00:00,75.0,77.0,3.73,4.43,,47.59359,-54.27349
2018-03-22 00:50:00+00:00,75.0,76.0,3.86,4.25,,47.59359,-54.27349
2018-03-22 01:00:00+00:00,75.0,71.0,5.16,5.75,,47.59359,-54.27349
2018-03-22 01:10:00+00:00,75.0,80.0,4.79,5.39,,47.59359,-54.27349
2018-03-22 01:20:00+00:00,72.0,70.0,4.45,5.01,,47.59359,-54.27349
2018-03-22 01:30:00+00:00,76.0,75.0,5.4,5.99,,47.59359,-54.27349
2018-03-22 01:40:00+00:00,76.0,76.0,5.54,6.16,,47.59359,-54.27349
2018-03-22 01:50:00+00:00,73.0,76.0,6.1,6.94,,47.59359,-54.27349
2018-03-22 02:00:00+00:00,66.0,69.0,7.42,8.46,,47.59359,-54.27349
2018-03-22 02:10:00+00:00,59.0,59.0,7.77,8.58,,47.59359,-54.27349
2018-03-22 02:20:00+00:00,62.0,64.0,7.63,8.76,,47.59359,-54.27349
2018-03-22 02:30:00+00:00,64.0,62.0,8.18,9.3,,47.59359,-54.27349
2018-03-22 02:40:00+00:00,65.0,68.0,7.63,9.08,,47.59359,-54.27349
2018-03-22 02:50:00+00:00,67.0,73.0,7.7,8.74,,47.59359,-54.27349
2018-03-22 03:00:00+00:00,75.0,71.0,6.65,7.93,,47.59359,-54.27349
2018-03-22 03:10:00+00:00,67.0,72.0,8.17,9.09,,47.59359,-54.27349
2018-03-22 03:20:00+00:00,65.0,69.0,7.93,9.82,,47.59359,-54.27349
2018-03-22 03:30:00+00:00,68.0,73.0,11.05,14.24,,47.59359,-54.27349
2018-03-22 03:40:00+00:00,74.0,75.0,12.74,16.2,,47.59359,-54.27349
2018-03-22 03:50:00+00:00,76.0,77.0,14.29,16.09,,47.59359,-54.27349
2018-03-22 04:00:00+00:00,75.0,77.0,11.12,15.7,,47.59359,-54.27349
2018-03-22 04:10:00+00:00,76.0,80.0,13.4,16.93,,47.59359,-54.27349
2018-03-22 04:20:00+00:00,72.0,78.0,11.15,15.52,,47.59359,-54.27349
2018-03-22 04:30:00+00:00,71.0,75.0,11.25,14.39,,47.59359,-54.27349
2018-03-22 04:40:00+00:00,69.0,75.0,10.79,14.15,,47.59359,-54.27349
2018-03-22 04:50:00+00:00,69.0,75.0,11.61,15.39,,47.59359,-54.27349
2018-03-22 05:00:00+00:00,74.0,78.0,10.6,15.11,,47.59359,-54.27349
2018-03-22 05:10:00+00:00,72.0,80.0,11.34,15.52,,47.59359,-54.27349
2018-03-22 05:20:00+00:00,73.0,76.0,12.39,15.87,,47.59359,-54.27349
2018-03-22 05:30:00+00:00,72.0,79.0,10.26,14.53,,47.59359,-54.27349
2018-03-22 05:40:00+00:00,71.0,77.0,9.18,12.9,,47.59359,-54.27349
2018-03-22 05:50:00+00:00,74.0,77.0,9.87,13.08,,47.59359,-54.27349
2018-03-22 06:00:00+00:00,73.0,78.0,8.82,10.6,,47.59359,-54.27349
2018-03-22 06:10:00+00:00,78.0,82.0,9.07,13.27,,47.59359,-54.27349
2018-03-22 06:20:00+00:00,72.0,72.0,9.36,11.19,,47.59359,-54.27349
2018-03-22 06:30:00+00:00,66.0,74.0,9.97,14.44,,47.59359,-54.27349
2018-03-22 06:40:00+00:00,71.0,76.0,12.69,15.46,,47.59359,-54.27349
2018-03-22 06:50:00+00:00,72.0,76.0,11.99,16.08,,47.59359,-54.27349
2018-03-22 07:00:00+00:00,68.0,74.0,12.66,15.58,,47.59359,-54.27349
2018-03-22 07:10:00+00:00,69.0,77.0,9.58,12.85,,47.59359,-54.27349
2018-03-22 07:20:00+00:00,69.0,76.0,11.87,14.93,,47.59359,-54.27349
2018-03-22 07:30:00+00:00,68.0,77.0,11.45,15.14,,47.59359,-54.27349
2018-03-22 07:40:00+00:00,63.0,67.0,12.97,15.35,,47.59359,-54.27349
2018-03-22 07:50:00+00:00,65.0,75.0,11.56,16.32,,47.59359,-54.27349
2018-03-22 08:00:00+00:00,62.0,75.0,9.86,13.95,,47.59359,-54.27349
2018-03-22 08:10:00+00:00,63.0,69.0,12.3,15.44,,47.59359,-54.27349
2018-03-22 08:20:00+00:00,61.0,68.0,12.6,16.36,,47.59359,-54.27349
2018-03-22 08:30:00+00:00,58.0,66.0,9.55,12.64,,47.59359,-54.27349
2018-03-22 08:40:00+00:00,62.0,65.0,9.33,13.55,,47.59359,-54.27349
2018-03-22 08:50:00+00:00,60.0,58.0,9.25,11.97,,47.59359,-54.27349
2018-03-22 09:00:00+00:00,60.0,60.0,11.95,15.76,,47.59359,-54.27349
2018-03-22 09:10:00+00:00,64.0,74.0,10.0,14.57,,47.59359,-54.27349
2018-03-22 09:20:00+00:00,65.0,69.0,11.89,15.8,,47.59359,-54.27349
2018-03-22 09:30:00+00:00,59.0,65.0,11.17,15.67,,47.59359,-54.27349
2018-03-22 09:40:00+00:00,59.0,69.0,10.68,15.16,,47.59359,-54.27349
2018-03-22 09:50:00+00:00,68.0,71.0,12.56,16.14,,47.59359,-54.27349
2018-03-22 10:00:00+00:00,65.0,72.0,10.65,15.08,,47.59359,-54.27349
2018-03-22 10:10:00+00:00,67.0,70.0,12.21,15.95,,47.59359,-54.27349
2018-03-22 10:20:00+00:00,65.0,69.0,12.82,16.77,,47.59359,-54.27349
2018-03-22 10:30:00+00:00,68.0,71.0,14.78,16.56,,47.59359,-54.27349
2018-03-22 10:40:00+00:00,71.0,69.0,15.63,16.75,,47.59359,-54.27349
2018-03-22 10:50:00+00:00,74.0,77.0,15.13,16.75,,47.59359,-54.27349
2018-03-22 11:00:00+00:00,70.0,72.0,14.56,17.03,,47.59359,-54.27349
2018-03-22 11:10:00+00:00,71.0,76.0,15.6,17.0,,47.59359,-54.27349
2018-03-22 11:20:00+00:00,74.0,73.0,15.6,17.27,,47.59359,-54.27349
2018-03-22 11:30:00+00:00,74.0,77.0,14.23,16.58,,47.59359,-54.27349
2018-03-22 11:40:00+00:00,74.0,74.0,15.17,16.43,,47.59359,-54.27349
2018-03-22 11:50:00+00:00,76.0,71.0,15.22,16.77,,47.59359,-54.27349
2018-03-22 12:00:00+00:00,70.0,74.0,15.03,16.47,,47.59359,-54.27349
2018-03-22 12:10:00+00:00,74.0,79.0,15.45,16.41,,47.59359,-54.27349
2018-03-22 12:20:00+00:00,76.0,77.0,15.42,16.59,,47.59359,-54.27349
2018-03-22 12:30:00+00:00,83.0,85.0,14.35,16.9,,47.59359,-54.27349
2018-03-22 12:40:00+00:00,75.0,76.0,15.4,16.87,,47.59359,-54.27349
2018-03-22 12:50:00+00:00,78.0,77.0,15.65,18.35,,47.59359,-54.27349
2018-03-22 13:00:00+00:00,77.0,77.0,15.44,16.94,,47.59359,-54.27349
2018-03-22 13:10:00+00:00,82.0,81.0,14.26,16.45,,47.59359,-54.27349
2018-03-22 13:20:00+00:00,83.0,84.0,14.3,17.17,,47.59359,-54.27349
2018-03-22 13:30:00+00:00,83.0,84.0,15.27,17.57,,47.59359,-54.27349
2018-03-22 13:40:00+00:00,79.0,83.0,14.81,16.58,,47.59359,-54.27349
2018-03-22 13:50:00+00:00,82.0,83.0,15.69,19.48,,47.59359,-54.27349
2018-03-22 14:00:00+00:00,84.0,83.0,15.07,16.28,,47.59359,-54.27349
2018-03-22 14:10:00+00:00,81.0,76.0,15.12,16.41,,47.59359,-54.27349
2018-03-22 14:20:00+00:00,79.0,79.0,15.52,16.97,,47.59359,-54.27349
2018-03-22 14:30:00+00:00,88.0,88.0,12.64,15.87,,47.59359,-54.27349
2018-03-22 14:40:00+00:00,80.0,77.0,15.41,17.27,,47.59359,-54.27349
2018-03-22 14:50:00+00:00,82.0,83.0,15.46,16.96,,47.59359,-54.27349
2018-03-22 15:00:00+00:00,75.0,78.0,15.53,16.93,,47.59359,-54.27349
2018-03-22 15:10:00+00:00,79.0,81.0,15.24,16.84,,47.59359,-54.27349
2018-03-22 15:20:00+00:00,79.0,77.0,15.4,17.12,,47.59359,-54.27349
2018-03-22 15:30:00+00:00,80.0,84.0,15.3,16.77,,47.59359,-54.27349
2018-03-22 15:40:00+00:00,83.0,83.0,15.17,16.76,,47.59359,-54.27349
2018-03-22 15:50:00+00:00,71.0,80.0,15.69,18.16,,47.59359,-54.27349
2018-03-22 16:00:00+00:00,75.0,77.0,15.49,18.2,,47.59359,-54.27349
2018-03-22 16:10:00+00:00,76.0,79.0,15.84,18.62,,47.59359,-54.27349
2018-03-22 16:20:00+00:00,80.0,82.0,14.64,16.83,,47.59359,-54.27349
2018-03-22 16:30:00+00:00,82.0,77.0,14.98,16.89,,47.59359,-54.27349
2018-03-22 16:40:00+00:00,82.0,80.0,14.66,16.68,,47.59359,-54.27349
2018-03-22 16:50:00+00:00,87.0,85.0,15.01,16.45,,47.59359,-54.27349
2018-03-22 17:00:00+00:00,86.0,85.0,14.26,16.72,,47.59359,-54.27349
2018-03-22 17:10:00+00:00,86.0,73.0,15.07,16.8,,47.59359,-54.27349
2018-03-22 17:20:00+00:00,88.0,86.0,14.43,16.72,,47.59359,-54.27349
2018-03-22 17:30:00+00:00,85.0,87.0,15.02,16.74,,47.59359,-54.27349
2018-03-22 17:40:00+00:00,81.0,84.0,15.29,16.82,,47.59359,-54.27349
2018-03-22 17:50:00+00:00,82.0,82.0,15.48,16.97,,47.59359,-54.27349
2018-03-22 18:00:00+00:00,82.0,81.0,15.46,16.73,,47.59359,-54.27349
2018-03-22 18:10:00+00:00,86.0,81.0,15.41,16.9,,47.59359,-54.27349
2018-03-22 18:20:00+00:00,85.0,84.0,15.04,18.15,,47.59359,-54.27349
2018-03-22 18:30:00+00:00,87.0,92.0,14.43,17.98,,47.59359,-54.27349
2018-03-22 18:40:00+00:00,84.0,86.0,14.74,16.69,,47.59359,-54.27349
2018-03-22 18:50:00+00:00,87.0,78.0,14.8,17.03,,47.59359,-54.27349
2018-03-22 19:00:00+00:00,86.0,82.0,14.66,19.02,,47.59359,-54.27349
2018-03-22 19:10:00+00:00,81.0,82.0,16.53,21.18,,47.59359,-54.27349
2018-03-22 19:20:00+00:00,85.0,86.0,15.79,21.22,,47.59359,-54.27349
2018-03-22 19:30:00+00:00,85.0,77.0,15.29,17.01,,47.59359,-54.27349
2018-03-22 19:40:00+00:00,84.0,86.0,15.88,20.84,,47.59359,-54.27349
2018-03-22 19:50:00+00:00,83.0,84.0,17.24,27.69,,47.59359,-54.27349
2018-03-22 20:00:00+00:00,84.0,82.0,14.24,18.66,,47.59359,-54.27349
2018-03-22 20:10:00+00:00,88.0,83.0,13.56,16.27,,47.59359,-54.27349
2018-03-22 20:20:00+00:00,85.0,80.0,14.02,16.03,,47.59359,-54.27349
2018-03-22 20:30:00+00:00,85.0,75.0,14.33,16.0,,47.59359,-54.27349
2018-03-22 20:40:00+00:00,83.0,86.0,12.73,15.58,,47.59359,-54.27349
2018-03-22 20:50:00+00:00,87.0,80.0,12.02,15.72,,47.59359,-54.27349
2018-03-22 21:00:00+00:00,89.0,81.0,11.7,15.95,,47.59359,-54.27349
2018-03-22 21:10:00+00:00,86.0,81.0,13.07,16.38,,47.59359,-54.27349
2018-03-22 21:20:00+00:00,85.0,83.0,12.17,15.33,,47.59359,-54.27349
2018-03-22 21:30:00+00:00,86.0,95.0,12.51,15.46,,47.59359,-54.27349
2018-03-22 21:40:00+00:00,83.0,84.0,12.58,15.69,,47.59359,-54.27349
2018-03-22 21:50:00+00:00,83.0,82.0,14.14,16.25,,47.59359,-54.27349
2018-03-22 22:00:00+00:00,84.0,81.0,11.57,14.06,,47.59359,-54.27349
